[[{"header":{"parameterUnit":"m.s-1","parameterCategory":1,"la1":30.2991,"la2":30.254,"lo1":-89.0895,"lo2":-89.0444,"dy":0.0017,"dx":0.0017,"nx":28,"ny":28,"refTime":"2025-08-12T21:00:00:Z","depth":0,"parameterNumber":2,"parameterNumberName":"U-component_of_WINDS"},"data":[0,0,0,0,0,0,0,0,0,0,0,0,0,0,0,0,0,0,0,0,0,0,0,0,0,0,0,0,0,0,0,0,0,0,0,0,0,0,0,0,0,0,0,0,0,0,0,0,0,0,0,0,0,0,0,0,0,0,2.7042,2.7043,0,2.7141,2.7142,2.7143,2.7144,2.7143,2.7142,2.7141,2.7239,2.7242,2.7246,0,0,0,0,0,0,0,0,0,0,0,0,0,2.6848,2.6852,2.7042,2.7043,2.7044,2.7141,2.7142,2.7143,2.7144,2.7143,2.7141,2.714,2.7237,2.7242,2.7246,0,0,0,0,0,0,0,0,0,0,0,0,0,2.6938,2.6853,2.7041,2.7056,2.7059,2.714,2.7142,2.7144,2.7145,2.7143,2.7141,2.7139,2.7236,2.7241,2.7247,2.7319,0,0,2.7264,2.7267,0,0,0,0,0,0,0,0,2.6933,2.6945,2.7053,2.7056,2.7058,2.7128,2.711,2.7202,2.7145,2.7112,2.7141,2.7138,2.7203,2.7211,2.7234,2.7324,2.7328,2.7265,2.7268,2.7271,2.7272,0,0,0,0,0,0,0,2.6927,2.6941,2.7081,2.7054,2.7058,2.7056,2.7067,2.7127,2.7167,2.7115,2.7115,2.7127,2.7204,2.7229,2.7236,2.7329,2.7265,2.727,2.7273,2.7275,2.748,2.7482,0,0,0,0,0,0,2.6918,2.6936,2.7078,2.7084,2.699,2.7061,2.7073,2.7108,2.7166,2.7173,2.7128,2.7127,2.722,2.723,2.724,2.7327,2.7271,2.7276,2.7279,2.7478,2.7481,2.7483,0,0,0,0,0,0,2.6914,2.6931,2.7074,2.701,2.7028,2.7067,2.7105,2.7111,2.7135,2.7177,2.7183,2.7146,2.7219,2.7232,2.7299,2.733,2.7278,2.7284,2.7476,2.7479,2.7482,2.7502,0,0,0,0,0,0,2.6909,2.6929,2.6959,2.7011,2.7031,2.7133,2.7107,2.7114,2.7145,2.7144,2.7195,2.7202,2.7218,2.7291,2.7305,2.7337,2.7288,2.7473,2.7477,2.7481,2.7499,2.7505,2.7511,0,0,0,0,0,2.6902,2.696,2.696,2.6977,2.7069,2.7135,2.7147,2.7165,2.7148,2.7176,2.7203,2.72,2.7324,2.7298,2.7313,2.7348,2.7471,2.7476,2.7481,2.7496,2.7504,2.7511,0,0,0,0,0,0,2.6911,2.6968,2.6968,2.7046,2.7085,2.7135,2.7172,2.7174,2.7219,2.7215,2.7235,2.7247,2.7314,2.7337,2.7306,2.7419,2.7395,2.7403,2.7402,2.741,2.7416,2.7409,2.7293,0,0,0,0,0,2.6922,2.6972,2.7018,2.7082,2.7102,2.7133,2.7163,2.7174,2.7215,2.7232,2.7263,2.7302,2.735,2.7381,2.7427,2.7502,2.7512,2.7533,2.7539,2.7544,2.7551,2.759,2.7599,2.7498,2.7498,2.7498,0,0,2.6945,2.6982,2.7013,2.7085,2.7117,2.7166,2.7148,2.7202,2.7238,2.724,2.7305,2.7329,2.7374,2.7445,2.7477,2.7467,2.7581,2.755,2.7553,2.7558,2.7595,2.7605,2.7613,2.7501,2.7501,2.75,0,0,2.7013,2.7047,2.7103,2.7135,2.7184,2.7204,2.7217,2.7266,2.7282,2.7349,2.735,2.7393,2.7475,2.7506,2.7533,2.761,2.7608,2.7624,2.7656,2.7694,2.7702,2.7709,2.7735,2.7744,2.763,2.763,2.763,0,2.7036,2.7112,2.7131,2.7185,2.7215,2.7219,2.7275,2.7305,2.7366,2.7386,2.7373,2.7475,2.7505,2.7582,2.7601,2.7623,2.7637,2.7619,2.7699,2.7707,2.7714,2.7739,2.7749,2.7632,2.7632,2.7632,2.7631,0,2.7137,2.7189,2.7228,2.7287,2.7322,2.7377,2.7402,2.7434,2.7441,2.7462,2.7528,2.7564,2.7617,2.7636,2.7643,2.7713,2.7705,2.7695,2.7672,2.7725,2.7748,2.7758,2.7634,2.7634,2.7633,2.7633,0,0,2.7215,2.7283,2.7297,2.7322,2.7375,2.7415,2.7468,2.7521,2.7547,2.7588,2.7632,2.77,2.7691,2.7722,2.7732,2.7765,2.7821,2.7751,2.7753,2.7762,2.7899,2.7905,2.7916,2.782,2.7822,2.7824,2.7895,0,2.7288,2.7385,2.7402,2.7485,2.7532,2.7535,2.7581,2.7617,2.7637,2.7679,2.77,2.7748,2.7733,2.7751,2.7784,2.7808,2.7849,2.7803,2.786,2.7862,2.7849,2.7929,2.7937,2.8002,2.7904,2.7906,2.7907,0,2.7387,2.7431,2.7519,2.7563,2.7583,2.7625,2.7672,2.7713,2.7753,2.7765,2.7797,2.7803,2.7856,2.783,2.7902,2.787,2.7894,2.7909,2.7911,2.7918,2.7888,2.7937,2.8024,2.8033,2.7922,2.7921,2.792,0,2.7434,2.7515,2.7577,2.7599,2.7653,2.7681,2.7705,2.7743,2.7772,2.7813,2.7832,2.7879,2.7904,2.7939,2.7956,2.7936,2.8026,2.8002,2.8037,2.8036,2.8056,2.8055,2.8148,2.8072,2.8072,2.8072,2.8071,0,2.7514,2.7568,2.7599,2.7638,2.7696,2.7714,2.7772,2.7794,2.7827,2.7869,2.7873,2.7912,2.7932,2.7973,2.7987,2.8043,2.8055,2.8065,2.8068,2.8065,2.8063,2.8081,2.8077,2.8074,2.8074,2.8073,2.8073,0,2.7578,2.7601,2.7669,2.7713,2.7726,2.7767,2.7804,2.784,2.7859,2.7911,2.7924,2.7954,2.8002,2.8022,2.8081,2.809,2.8155,2.8154,2.8142,2.8143,2.8176,2.8172,2.8283,2.8298,2.8213,2.8214,2.8214,0,2.7627,2.7668,2.7716,2.7745,2.7769,2.7815,2.7844,2.7862,2.7893,2.794,2.797,2.8018,2.8058,2.8134,2.8159,2.8204,2.8204,2.824,2.8211,2.8206,2.8204,2.8201,2.8205,2.8245,2.8246,2.8247,2.8248,0,2.7712,2.7721,2.7765,2.7811,2.7847,2.7884,2.7921,2.7943,2.7967,2.8,2.805,2.808,2.814,2.8187,2.8232,2.8254,2.8254,2.8256,2.8266,2.8264,2.8254,2.8259,2.8156,2.8254,2.8253,2.8253,2.8252,2.8252,2.777,2.7806,2.7845,2.7892,2.7921,2.7955,2.799,2.8013,2.8055,2.8106,2.8113,2.8165,2.8201,2.8262,2.8286,2.8326,2.8317,2.8332,2.8336,2.8339,2.8341,2.8248,2.8334,2.8334,2.8334,2.8334,2.8334,0,2.7854,2.7879,2.7922,2.7973,2.801,2.8007,2.8046,2.8077,2.8123,2.8157,2.8195,2.8251,2.8296,2.8324,2.8369,2.8395,2.8396,2.8406,2.8404,2.8409,2.8347,2.8333,2.8405,2.8405,2.8405,2.8405,2.8405,2.8405,2.7903,2.7963,2.7976,2.8049,2.8073,2.8125,2.8147,2.8177,2.8204,2.8266,2.8304,2.8322,2.8353,2.84,2.844,2.8447,2.8463,2.8474,2.848,2.8421,2.8414,2.8407,2.8394,2.8477,2.8477,2.8539,2.854,2.854]},{"header":{"parameterUnit":"m.s-1","parameterCategory":1,"la1":30.2991,"la2":30.254,"lo1":-89.0895,"lo2":-89.0444,"dy":0.0017,"dx":0.0017,"nx":28,"ny":28,"refTime":"2025-08-12T21:00:00:Z","depth":0,"parameterNumber":3,"parameterNumberName":"V-component_of_WINDS"},"data":[0,0,0,0,0,0,0,0,0,0,0,0,0,0,0,0,0,0,0,0,0,0,0,0,0,0,0,0,0,0,0,0,0,0,0,0,0,0,0,0,0,0,0,0,0,0,0,0,0,0,0,0,0,0,0,0,0,0,-1.4596,-1.4595,0,-1.457,-1.457,-1.457,-1.4512,-1.4511,-1.451,-1.4509,-1.4481,-1.4482,-1.4482,0,0,0,0,0,0,0,0,0,0,0,0,0,-1.4592,-1.4592,-1.4596,-1.4595,-1.4595,-1.457,-1.457,-1.457,-1.4512,-1.4511,-1.451,-1.4508,-1.4481,-1.4482,-1.4482,0,0,0,0,0,0,0,0,0,0,0,0,0,-1.4583,-1.4593,-1.4596,-1.4564,-1.456,-1.457,-1.457,-1.4569,-1.4513,-1.4511,-1.4509,-1.4508,-1.4481,-1.4482,-1.4482,-1.4521,0,0,-1.4484,-1.4484,0,0,0,0,0,0,0,0,-1.4583,-1.4583,-1.4569,-1.4566,-1.4562,-1.4543,-1.4558,-1.4553,-1.4513,-1.4531,-1.4509,-1.4507,-1.4503,-1.4502,-1.4501,-1.452,-1.4519,-1.4484,-1.4484,-1.4485,-1.4485,0,0,0,0,0,0,0,-1.4584,-1.4584,-1.4586,-1.4569,-1.4565,-1.4549,-1.4546,-1.4557,-1.4527,-1.4529,-1.4525,-1.4523,-1.4501,-1.45,-1.45,-1.4518,-1.4484,-1.4484,-1.4485,-1.4485,-1.4564,-1.4566,0,0,0,0,0,0,-1.459,-1.4585,-1.4586,-1.4585,-1.4569,-1.4551,-1.4547,-1.4551,-1.4527,-1.4522,-1.4524,-1.452,-1.45,-1.4499,-1.4499,-1.4541,-1.4485,-1.4485,-1.4485,-1.4563,-1.4565,-1.4567,0,0,0,0,0,0,-1.459,-1.459,-1.4587,-1.4584,-1.4582,-1.4553,-1.4557,-1.4551,-1.455,-1.4523,-1.4517,-1.4529,-1.4499,-1.4498,-1.4515,-1.4539,-1.4485,-1.4486,-1.4561,-1.4563,-1.4566,-1.4627,0,0,0,0,0,0,-1.459,-1.4591,-1.4606,-1.4584,-1.4582,-1.4606,-1.4559,-1.4552,-1.4552,-1.4546,-1.4526,-1.4521,-1.4497,-1.4515,-1.4516,-1.4539,-1.4486,-1.4558,-1.4562,-1.4565,-1.4622,-1.4631,-1.4638,0,0,0,0,0,-1.459,-1.4625,-1.4607,-1.4608,-1.4601,-1.4607,-1.4606,-1.4578,-1.4554,-1.4568,-1.455,-1.4522,-1.4536,-1.4517,-1.4518,-1.4541,-1.4557,-1.4561,-1.4565,-1.4619,-1.4629,-1.4638,0,0,0,0,0,0,-1.465,-1.4621,-1.4602,-1.463,-1.4622,-1.4598,-1.4615,-1.4591,-1.4588,-1.4583,-1.4548,-1.4544,-1.4566,-1.4555,-1.4534,-1.4576,-1.4542,-1.4546,-1.4582,-1.4592,-1.46,-1.4602,-1.4487,0,0,0,0,0,-1.4667,-1.4675,-1.4649,-1.4677,-1.4673,-1.4645,-1.4647,-1.4626,-1.4615,-1.4611,-1.4595,-1.4585,-1.4586,-1.4589,-1.4589,-1.462,-1.4614,-1.4636,-1.4644,-1.4651,-1.4655,-1.4669,-1.4678,-1.458,-1.458,-1.458,0,0,-1.4702,-1.4687,-1.4694,-1.4688,-1.4679,-1.4687,-1.4643,-1.4654,-1.4659,-1.4613,-1.4628,-1.4615,-1.4602,-1.4626,-1.4635,-1.4617,-1.4681,-1.4656,-1.4662,-1.4662,-1.4674,-1.4683,-1.4691,-1.4583,-1.4582,-1.4582,0,0,-1.4768,-1.4759,-1.478,-1.4771,-1.4757,-1.4738,-1.4743,-1.4722,-1.4712,-1.4726,-1.4691,-1.4696,-1.4701,-1.4692,-1.4688,-1.4749,-1.4722,-1.475,-1.4792,-1.4805,-1.4813,-1.482,-1.484,-1.4848,-1.4754,-1.4754,-1.4754,0,-1.4813,-1.4825,-1.4794,-1.4806,-1.4804,-1.4762,-1.4782,-1.4775,-1.4762,-1.4761,-1.4741,-1.4744,-1.4732,-1.4753,-1.4767,-1.4766,-1.4769,-1.4752,-1.4815,-1.4821,-1.4827,-1.4846,-1.4854,-1.4758,-1.4757,-1.4757,-1.4757,0,-1.4879,-1.4888,-1.4906,-1.4894,-1.4894,-1.4911,-1.4881,-1.4884,-1.4862,-1.4844,-1.4858,-1.4842,-1.4838,-1.4841,-1.482,-1.4857,-1.4846,-1.4821,-1.4786,-1.484,-1.4857,-1.4864,-1.4763,-1.4761,-1.476,-1.4759,0,0,-1.4985,-1.4954,-1.4962,-1.4955,-1.4935,-1.4941,-1.4954,-1.495,-1.4952,-1.4944,-1.4954,-1.4957,-1.4933,-1.4928,-1.4906,-1.4918,-1.4965,-1.489,-1.4889,-1.4904,-1.5003,-1.5022,-1.5031,-1.4946,-1.4948,-1.4949,-1.5003,0,-1.5047,-1.5069,-1.5041,-1.5069,-1.5075,-1.5033,-1.5045,-1.5033,-1.5017,-1.5018,-1.4999,-1.5002,-1.497,-1.4967,-1.4977,-1.4957,-1.4984,-1.4953,-1.4954,-1.4954,-1.4959,-1.504,-1.5061,-1.5114,-1.501,-1.5011,-1.5012,0,-1.5123,-1.5118,-1.5147,-1.5123,-1.5125,-1.5136,-1.5128,-1.5131,-1.5116,-1.5102,-1.5096,-1.5069,-1.5079,-1.5044,-1.5056,-1.5035,-1.5034,-1.5024,-1.5025,-1.5024,-1.4987,-1.5041,-1.513,-1.5138,-1.5023,-1.5022,-1.5021,0,-1.5197,-1.5197,-1.5213,-1.5209,-1.5182,-1.519,-1.518,-1.5163,-1.5161,-1.5154,-1.5152,-1.5146,-1.5143,-1.5138,-1.5109,-1.5087,-1.5124,-1.5088,-1.5112,-1.5113,-1.5122,-1.5122,-1.5212,-1.5122,-1.5122,-1.5122,-1.5121,0,-1.5269,-1.5288,-1.5245,-1.5256,-1.5275,-1.524,-1.526,-1.5245,-1.523,-1.5235,-1.5199,-1.5205,-1.5166,-1.5167,-1.5144,-1.5156,-1.5155,-1.5144,-1.5137,-1.5147,-1.5149,-1.5146,-1.5141,-1.5124,-1.5123,-1.5123,-1.5122,0,-1.5355,-1.5327,-1.5342,-1.5315,-1.5309,-1.5324,-1.53,-1.5308,-1.5287,-1.5294,-1.5294,-1.5262,-1.5261,-1.5231,-1.5224,-1.5208,-1.523,-1.5217,-1.5236,-1.5231,-1.5257,-1.5255,-1.5349,-1.5359,-1.5262,-1.5263,-1.5264,0,-1.5403,-1.5416,-1.539,-1.5391,-1.5382,-1.5384,-1.5382,-1.5348,-1.5347,-1.5329,-1.5338,-1.5334,-1.5329,-1.5329,-1.5305,-1.5298,-1.5284,-1.5317,-1.5283,-1.5292,-1.5284,-1.5284,-1.5284,-1.5325,-1.5326,-1.5327,-1.5328,0,-1.5491,-1.5476,-1.5474,-1.5467,-1.5466,-1.5458,-1.5449,-1.5452,-1.5414,-1.5414,-1.5412,-1.5408,-1.54,-1.5396,-1.5384,-1.5371,-1.5343,-1.5339,-1.5344,-1.5354,-1.5364,-1.5358,-1.5255,-1.5337,-1.5336,-1.5335,-1.5335,-1.5335,-1.5559,-1.5568,-1.5551,-1.5549,-1.5538,-1.5529,-1.5535,-1.5514,-1.5513,-1.5503,-1.5483,-1.5484,-1.5466,-1.5448,-1.5437,-1.5436,-1.542,-1.5428,-1.5429,-1.5432,-1.5437,-1.5364,-1.5434,-1.5434,-1.5434,-1.5433,-1.5433,0,-1.5644,-1.563,-1.563,-1.5617,-1.5615,-1.5588,-1.5575,-1.5576,-1.5577,-1.5563,-1.5559,-1.5555,-1.555,-1.5525,-1.5516,-1.5521,-1.5507,-1.552,-1.5519,-1.5516,-1.5453,-1.5449,-1.5531,-1.5531,-1.5531,-1.5531,-1.5531,-1.553,-1.5689,-1.5702,-1.5685,-1.5692,-1.5677,-1.5679,-1.5673,-1.5664,-1.5653,-1.5651,-1.5647,-1.563,-1.561,-1.56,-1.5593,-1.5586,-1.5584,-1.5601,-1.5589,-1.553,-1.5521,-1.5512,-1.5508,-1.5601,-1.5601,-1.5652,-1.5653,-1.5653]}]]